Showing default

RASSVET-3 5, 68364

Orbit data source: Space-Track

RASSVET-3 5, 68364 is a payload satellite owned by Byuro 1440 (CIS) in LEO that was launched on Mon, 23 Mar 2026 UTC via a SOYUZ-2-1B launch vehicle from the Plesetsk Missile And Space Complex (PKMTR). Payload-class satellites include a variety of spacecraft equipped with specific instruments for various scientific and technological missions. These include communications satellites like Starlink; space stations such as the ISS; scientific satellites like the Hubble; Earth observation satellites from companies like Planet Labs, Umbra, and HawkEye 360; GPS; miniature CubeSats for education and research; and military/defense satellites.

Loading next visibility...
Identifier
68364, 2026-061E
Orbit
LEO
Country
Flag of CISCIS
Related business
Manufacturer
Byuro 1440
Mission
Operational spacecraft
Bus & Motor
RASSVET-2, Unknown motor
Mass
~370 kg wet, ~370 kg dry
Launch date (UTC)
2026-03-23 (3 months ago)
Launch vehicle
SOYUZ-2-1B
Launch site
Plesetsk Missile And Space Complex (PKMTR)
Object type
Payload
Rocket body
Debris
Shape & HBR
Unknown shape, 14.5 m
Radar Cross Section
Large (>1 m²)

Expand to show TLE details & history
Last TLE update: 19 hours ago

TLE from 19 hours ago
0 RASSVET-3 5
1 68364U 26061E   26169.32190135  .00258205  00000-0  12071-1 0  9994
2 68364  82.2955  13.7746 0002163 195.6244 164.4923 15.18583372 13568
Epoch: 2026-06-18T07:43Z
TLE epoch observation values (Epoch: 2026-06-18T07:43:32.276Z)
Latitude
-0.00005°
Longitude
-8.67679°
Altitude
514.637 km
Speed
7.606 km/s
True Right ascension
00h 55m 05s
True Declination
0° 00' 00"
Sunlit
Object was in daylight at epoch
Visualization orbit readout
Latitude
Unknown
Longitude
Unknown
Altitude
Unknown
Speed
Unknown
Apparent Right ascension
Unknown
Apparent Declination
Unknown
Sunlit
N/A
Visualization observer readout
Local Sidereal Time
13:29:07
Azimuth
Unknown
Elevation
Unknown
Doppler factor
Unknown
Orbital elements
Apogee altitude
508.591 km
Perigee altitude
505.613 km
Semi-major axis
6,885.239 km
Eccentricity
0.00022
Inclination
82.2955°
RAAN
13.7746°
Arg. of periapsis
195.6244°
True anomaly
164.49893°
Mean anomaly
164.4923°
Eccentric anomaly
164.49561°
Mean motion
3.79896 °/min
Orbital period
94.76 mins
BSTAR
0.012071
Loading maneuver chart data...
Computing Atmospheric mass density...
Loading historical data...
Loading historical data...
Loading historical data...
Loading historical data...
Loading historical data...
Loading historical data...
Loading historical data...

Documentation

Showing up to 5 results
|